#timestamp,LO_Frequency,Hit 
1504533615.2,286047000.2,N
1504533635.0,286046998.9,N
1504533635.9,286046998.9,N
1504533655.8,286046997.1,N
1504533675.6,286046999.6,N
1504533695.4,286046999.0,N
1504533715.3,286046999.5,N
1504533735.1,286046998.4,N
1504533736.0,286046998.4,N
1504533755.8,286046998.5,N
1504533775.7,286046999.6,N
1504533795.5,286046996.8,N
1504533815.3,286046997.0,N
1504533835.2,286046999.0,N
1504533855.9,286046999.3,N
1504533875.7,286046998.6,N
1504533895.5,286046999.7,N
1504533915.4,286047001.0,N
1504533935.2,286046997.1,N
1504533955.0,286047001.2,N
1504533955.9,286047001.2,N
1504533975.8,286046999.9,N
1504533995.6,286047001.1,N
1504534015.4,286047001.0,N
1504534035.3,286047000.3,N
1504534055.1,286047001.8,N
1504534075.8,286047001.4,N
1504534095.7,286047005.6,P
1504534115.5,286047004.6,N
1504534135.3,286047006.0,N
1504534155.2,286047005.5,N
1504534175.9,286047007.5,P
1504534195.7,286047000.0,N
1504534215.6,286046998.4,N
1504534235.4,286047004.4,N
1504534255.2,286047002.7,N
1504534275.1,286047000.0,N
1504534276.0,286047000.0,N
1504534295.8,286047000.4,N
1504534315.6,286047002.0,N
1504534335.5,286047004.0,N
1504534355.3,286047004.4,N
1504534375.1,286047000.5,N
1504534395.9,286046998.9,N
1504534415.7,286047000.5,N
1504534435.5,286046998.8,N
1504534455.4,286046998.5,N
1504534475.2,286047002.8,N
1504534495.0,286047001.6,N
1504534495.9,286047001.6,N
1504534515.8,286047005.5,N
1504534535.6,286047001.5,N
1504534555.4,286047004.0,N
1504534575.2,286047002.8,N
1504534595.1,286047002.4,N
1504534596.0,286047002.4,N
1504534615.8,286046998.5,N
1504534635.6,286047000.8,N
1504534655.5,286046999.2,N
1504534675.3,286046998.9,N
1504534695.1,286046998.6,N
1504534715.9,286047000.0,N
1504534735.7,286047000.2,N
1504534755.5,286047004.4,N
1504534775.4,286047002.7,N
1504534795.2,286047002.2,N
1504534815.0,286047004.2,N
1504534815.9,286047004.2,N
1504534835.8,286047005.5,N
1504534855.6,286047001.5,N
1504534875.4,286046999.5,N
1504534895.3,286046998.2,N
1504534915.1,286046998.4,N
1504534916.0,286046998.4,N
1504534935.8,286047002.2,N
1504534955.7,286047000.0,N
1504534975.5,286047003.5,N
1504534995.3,286047004.3,N
1504535015.2,286047002.9,N
1504535035.9,286047005.2,N
1504535055.7,286046999.8,N
1504535075.5,286046996.8,N
1504535095.4,286046997.6,N
1504535115.2,286046999.5,N
1504535135.0,286047001.1,N
1504535135.9,286047001.1,N
1504535155.8,286047000.8,N
1504535175.6,286046998.3,N
1504535195.4,286047002.8,N
1504535215.3,286047001.6,N
1504535235.1,286046996.5,N
1504535236.0,286046996.5,N
1504535255.8,286047001.2,N
1504535275.7,286047000.1,N
1504535295.5,286047000.7,N
1504535315.3,286047000.4,N
1504535335.2,286047002.3,N
1504535355.9,286047000.5,N
1504535375.7,286047000.4,N
1504535395.6,286047001.6,N
1504535415.4,286047002.3,N
1504535435.2,286047004.0,N
1504535455.0,286047002.2,N
1504535475.0,286047000.2,N
1504535475.9,286047000.2,N
1504535495.7,286047000.6,N
1504535515.6,286046996.8,N
1504535535.4,286046995.2,N
1504535555.3,286046991.1,P
1504535575.1,286046991.3,N
1504535576.0,286046991.3,N
1504535595.8,286046995.8,N
1504535615.6,286046997.4,N
1504535635.5,286046993.8,N
1504535655.3,286046992.6,N
1504535675.1,286046995.6,N
1504535695.9,286046995.9,N
1504535715.7,286046995.9,N
1504535735.5,286046993.4,N
1504535755.4,286046996.2,N
1504535775.2,286046998.0,N
1504535795.0,286046997.5,N
1504535795.9,286046997.5,N
1504535815.8,286046995.7,N
1504535835.6,286046999.2,N
1504535855.4,286046997.9,N
1504535875.3,286046993.3,N
1504535895.1,286046992.1,P
1504535915.8,286047000.1,N
1504535935.7,286047000.6,N
1504535955.5,286046999.5,N
1504535975.3,286046998.8,N
1504535995.2,286047002.3,N
1504536015.9,286046998.5,N
1504536035.7,286047001.8,N
1504536055.6,286046999.4,N
1504536075.4,286046993.4,N
1504536095.2,286046993.5,N
1504536115.0,286046991.7,N
1504536115.9,286046991.7,N
1504536135.8,286046992.0,N
1504536155.6,286046994.6,N
1504536175.4,286046992.9,N
1504536195.3,286046994.3,N
1504536215.1,286046993.5,N
1504536235.8,286046994.7,N
1504536255.7,286046992.3,N
1504536275.5,286046991.0,N
1504536295.3,286046993.6,N
1504536315.2,286046999.6,N
1504536335.9,286046996.8,N
1504536355.7,286046998.7,N
1504536375.6,286046995.1,N
1504536395.4,286046995.0,N
1504536415.2,286046995.5,N
1504536435.1,286046997.6,N
1504536436.0,286046997.6,N
1504536455.8,286047003.2,N
1504536475.6,286047000.3,N
1504536495.5,286046998.3,N
1504536515.3,286047001.2,N
1504536535.1,286046996.5,N
1504536555.8,286046998.4,N
1504536575.7,286047000.5,N
1504536595.5,286046999.6,N
1504536615.3,286046998.3,N
1504536635.2,286046999.3,N
1504536655.9,286046999.1,N
1504536675.7,286046995.7,N
1504536695.6,286046992.9,N
1504536715.4,286046990.3,P
1504536735.2,286046997.7,N
1504536755.1,286046996.2,N
1504536756.0,286046996.2,N
1504536775.8,286046996.6,N
1504536795.6,286047000.1,N
1504536815.5,286046998.3,N
1504536835.3,286046997.9,N
1504536855.1,286046997.5,N
1504536875.2,286046996.8,N
1504536895.0,286047002.4,N
1504536895.9,286047002.4,N
1504536915.8,286047007.2,N
1504536935.6,286047006.0,N
1504536955.4,286047006.0,N
1504536975.3,286047004.5,N
1504536995.1,286047005.1,N
1504536996.0,286047005.1,N
1504537015.8,286047005.0,N
1504537035.6,286047006.0,N
1504537055.5,286047005.6,N
1504537075.3,286047001.8,N
1504537095.1,286047000.8,N
1504537115.9,286047000.4,N
1504537135.7,286047002.0,N
1504537155.5,286047005.5,N
1504537175.4,286047001.7,N
1504537195.2,286047003.2,N
